Regional Weather Roundup
Issued by NWS

Home | Current Version | Previous Version | Text Only | Print | Product List | Glossary On
Versions: 1 2 3 4 5 6 7 8 9 10 11 12 13 14 15 16 17 18 19 20 21 22 23 24 25 26 27 28 29 30 31 32 33 34 35 36 37 38 39 40 41 42 43 44 45 46 47 48 49 50
000
ASUS44 KLIX 011111
RWRLA
LOUISIANA WEATHER ROUNDUP
NATIONAL WEATHER SERVICE NEW ORLEANS LA
600 AM CDT FRI AUG 01 2014

NOTE: "FAIR" INDICATES FEW OR NO CLOUDS BELOW 12,000 FEET WITH NO
      SIGNIFICANT WEATHER AND/OR OBSTRUCTIONS TO VISIBILITY.
      SKY/WX - SKY CONDITION AND SIGNIFICANT WEATHER.
      TMP - AIR TEMPERATURE.    DP   - DEWPOINT TEMPERATURE.
      RH  - RELATIVE HUMIDITY.  PRES - PRESSURE.
      HX  - HEAT INDEX.         WCI  - WIND CHILL INDEX.

*  THESE STATIONS ARE NOT NWS OR FAA STATIONS AND ARE NOT UNDER
   NWS QUALITY CONTROL.

LAZ040-048-061>063-065-066-069-011200-
SOUTHEAST LOUISIANA

CITY           SKY/WX    TMP DP  RH WIND       PRES   REMARKS
N.O. AUDUBON     N/A     79  70  74 MISG        N/A
N.O. INTL ARPT MOCLDY    78  68  71 CALM      29.98R
N.O. LAKEFRONT CLOUDY    80  71  74 E6        29.99R
N.O. DOWNTOWN* PTSUNNY   81  64  57 CALM      29.99R
SLIDELL        CLOUDY    73  69  87 CALM      29.99R
BATON ROUGE    CLOUDY    73  67  81 NE6       29.98R
BOOTHVILLE     CLOUDY    78  70  76 SE3       29.98R
BELLE CHASSE   CLOUDY    74  70  87 CALM      29.98R
BOGALUSA*      CLOUDY    73  68  86 CALM      30.02R
GALLIANO*      NOT AVBL
NEW ROADS*     PTSUNNY   74  67  80 CALM      29.97S
GONZALES*      PTSUNNY   73  73 100 CALM      29.98R
HAMMOND*       CLOUDY    73  66  78 CALM      30.01R
HOUMA*         CLOUDY    74  70  87 CALM      29.97S
PORT FOURCHON* SUNNY     81  68  65 E3        29.99R

$$

LAZ041-044-053-054-011200-
SOUTHWEST LOUISIANA

CITY           SKY/WX    TMP DP  RH WIND       PRES   REMARKS
LAKE CHARLES   CLOUDY    78  71  79 SW3       29.94R
LAFAYETTE      MOCLDY    76  74  93 CALM      29.96R
PATTERSON      MOCLDY    77  73  88 SE5       30.00S
SALT POINT       N/A     83  74  74 CALM      29.96R
NEW IBERIA     MOCLDY    78  74  87 SE5       29.97R
CHENAULT AIRPK CLOUDY    81  70  69 SW5       29.95R THUNDER

$$

LAZ027-028-011200-
CENTRAL LOUISIANA

CITY           SKY/WX    TMP DP  RH WIND       PRES   REMARKS
FORT POLK      LGT RAIN  74  73  97 CALM      29.94S
ALEXANDRIA INT TSTM      71  69  93 N8        29.95R FOG
ALEXANDRIA     HVY RAIN  70  67  90 SE3       29.97R FOG

$$

LAZ001-002-011200-
NORTHWEST LOUISIANA

CITY           SKY/WX    TMP DP  RH WIND       PRES   REMARKS
SHREVEPORT     DRIZZLE   68  66  93 E6        29.96S
BARKSDALE AFB  CLOUDY    67  66  97 NE3       29.97S
DTN SHREVEPORT CLOUDY    67  65  93 NE3       29.97S FOG

$$

LAZ014-016-011200-
NORTHEAST LOUISIANA

CITY           SKY/WX    TMP DP  RH WIND       PRES   REMARKS
MONROE         LGT RAIN  69  67  93 CALM      30.00F
TALLULAH       RAIN      71  68  90 NE5       30.03R

$$




USA.gov is the U.S. government's official web portal to all federal, state and local government web resources and services.